Regional Weather Roundup
Issued by NWS State College, PA

Home | Current Version | Previous Version | Text Only | Print | Product List | Glossary Off
Versions: 1 2 3 4 5 6 7 8 9 10 11 12 13 14 15 16 17 18 19 20 21 22 23 24 25 26 27 28 29 30 31 32 33 34 35 36 37 38 39 40 41 42 43 44 45 46 47 48 49 50

000
ASUS41 KCTP 261110
RWRCTP

REGIONAL WEATHER ROUNDUP
NATIONAL WEATHER SERVICE STATE COLLEGE PA
700 AM EDT FRI AUG 26 2016

Note: "fair" indicates few or no clouds below 12,000 feet with no
significant weather and/or obstructions to visibility.

* = STATION THAT DOES NOT REPORT PRECIPITATION /E.G. RAIN...SNOW...ETC/
    THUNDER OR FOG.

PAZ002>004-007>009-013>016-020>023-029>032-261200-
WESTERN PENNSYLVANIA

CITY           SKY/WX    TMP DP  RH WIND       PRES   REMARKS
ERIE           MOCLDY    75  68  78 W5        30.08R
MEADVILLE      CLOUDY    69  68  96 W3        30.12R
FRANKLIN*        N/A     70  66  88 W5        30.13R
NEW CASTLE     FAIR      69  68  96 SW3       30.13R FOG
BEAVER COUNTY  CLEAR     70  68  94 CALM      30.13
BUTLER*        NOT AVBL
PITTSBURGH INT FAIR      72  68  87 W3        30.12R
PITTSBURGH     FAIR      72  68  87 W6        30.12R
INDIANA*       FOG       70  70 100 W3        30.16R VSB 1/4
LATROBE        PTCLDY    70  70 100 SW7       30.14R
WASHINGTON CO* FAIR      66  64  94 CALM      30.14R
$$

PAZ004>006-010>012-017>019-024>028-033>037-041-042-045-046-049>053-261200-
CENTRAL PENNSYLVANIA

CITY           SKY/WX    TMP DP  RH WIND       PRES   REMARKS
BRADFORD       CLOUDY    68  68 100 W3        30.14R
DUBOIS         MOCLDY    70  67  90 W5        30.13R FOG
CLEARFIELD     FAIR      71  70  96 CALM      30.12R
JOHNSTOWN      MOCLDY    70  69  97 W6        30.16S
ALTOONA        CLOUDY    71  70  96 SW3       30.13R
STATE COLLEGE  PTCLDY    73  70  88 CALM      30.10R
WILLIAMSPORT   FAIR      72  69  90 CALM      30.04R
SELINSGROVE    FAIR      69  69 100 CALM      30.06R FOG
FT INDIANTOWN  FOG       72  72 100 NW1       30.05R VSB 1/2
CAPITAL CITY   FAIR      74  71  91 SW3       30.04R FOG
HARRISBURG     FAIR      75  75 100 N3        30.03R FOG
YORK           FOG       70  69  97 CALM      30.06R VSB<1/4
$$

PAZ038>040-043-044-047-048-054-055-060>062-067>071-261200-
EASTERN PENNSYLVANIA

CITY           SKY/WX    TMP DP  RH WIND       PRES   REMARKS
SCRANTON       MOCLDY    74  72  93 SW7       30.04R
MOUNT POCONO   CLOUDY    70  69  97 W13       30.07S
ALLENTOWN      FAIR      72  69  90 CALM      30.02R FOG
QUAKERTOWN*    FAIR      73  73 100 CALM      30.03R
READING        FAIR      75  72  90 W6        30.02R
LANCASTER      FAIR      73  73 100 W3        30.04R FOG
COATESVILLE    FAIR      73  73 100 W3        30.06R FOG
POTTSTOWN      FAIR      74  73  97 CALM      30.04R FOG
BLUE BELL      CLOUDY    73  72  94 CALM      30.01S
DOYLESTOWN     CLOUDY    76  73  91 W3        30.01S
WILLOW GROVE   NOT AVBL
NORTH PHILA    MOCLDY    77  73  87 SW7       30.02R
PHILADELPHIA   MOCLDY    77  72  84 SW12      30.01S
$$




USA.gov is the U.S. government's official web portal to all federal, state and local government web resources and services.